Retour au catalogue

MDS 1

ActifScienceHEO
NORAD 27367·PAYLOAD·🇯🇵 Japan

Lancé Feb 4, 2002 depuis Tanegashima Space Center

Loading…

Prochains Passages (prochaines 24 heures)

TLE

FraisSource: Space-Track

Époque: Sep 14, 2026, 07:53 UTC

1 27367U 02003A   26257.32887444  .00008158  00000-0  52931-3 0  9997
2 27367  28.5103 102.1454 4128219 262.0264  50.5096  7.20020199399277

Suivez MDS 1 en temps réel avec AllMySat

Download on the App Store